Regional Weather Roundup
Issued by NWS

Home | Current Version | Previous Version | Graphics & Text | Print | Product List | Glossary On
Versions: 1 2 3 4 5 6 7 8 9 10 11 12 13 14 15 16 17 18 19 20 21 22 23 24 25 26 27 28 29 30 31 32 33 34 35 36 37 38 39 40 41 42 43 44 45 46 47 48 49 50
000
ASUS43 KLSX 071407
RWRMO

WEATHER SUMMARY FOR MISSOURI
NATIONAL WEATHER SERVICE SPRINGFIELD MO
800 AM CST WED DEC 07 2016

NOTE: "FAIR" INDICATES FEW OR NO CLOUDS BELOW 12,000 FEET WITH NO
       SIGNIFICANT WEATHER AND/OR OBSTRUCTIONS TO VISIBILITY.
       CURRENT SKY AND/OR WEATHER CONDITIONS ARE NOT AVAILABLE FOR
       CHILLICOTHE AND FARMINGTON.

MOZ001>031-035>038-043-044-053-054-071500-
...NORTHERN AND WESTERN MISSOURI...

CITY           SKY/WX    TMP DP  RH WIND       PRES   REMARKS
KANSAS CTY INT CLOUDY    27  13  55 N6        30.23R WCI  20
KANSAS C DTWN  CLOUDY    30  13  49 N6        30.23R WCI  24
LEE`S SUMMIT   CLOUDY    29  12  49 NE6       30.22R WCI  23
ST JOSEPH      CLOUDY    25  14  63 N14       30.25R WCI  13
CHILLICOTHE      N/A     25  15  66 VRB6      30.22S WCI  18
KIRKSVILLE     CLOUDY    25  14  63 W6        30.19S WCI  18

$$
MOZ066>068-077>081-088>096-101>105-071500-
...SOUTHWEST MISSOURI...

CITY           SKY/WX    TMP DP  RH WIND       PRES   REMARKS
SPRINGFIELD    PTCLDY    29  15  56 E7        30.18R WCI  22
JOPLIN         CLOUDY    32  17  54 E7        30.20R WCI  26
BRANSON        MOCLDY    30  18  59 E8        30.18F WCI  23

$$
MOZ032>034-039>042-045>050-055>058-069>072-071500-
...CENTRAL MISSOURI...

CITY           SKY/WX    TMP DP  RH WIND       PRES   REMARKS
COLUMBIA       CLOUDY    31  15  52 NW5       30.19R WCI  26
JEFFERSON CITY CLOUDY    29  21  72 SE3       30.22R
ROLLA          CLOUDY    28  23  81 S3        30.18R
SEDALIA        CLOUDY    32  13  45 N5        30.21R WCI  27
WHITEMAN AFB   MOCLDY    30  15  53 N7        30.20R WCI  23
WARRENSBURG    CLOUDY    30  18  59 N5        30.21S WCI  25
OSAGE BEACH    CLOUDY    28  23  81 CALM      30.22R

$$
MOZ051-052-059>065-071500-
...EAST CENTRAL MISSOURI...

CITY           SKY/WX    TMP DP  RH WIND       PRES   REMARKS
ST LOUIS INTL  CLOUDY    33  17  51 W6        30.21R WCI  28
SPIRIT OF STL  CLOUDY    30  24  78 W6        30.22R WCI  24
ST CHARLES     CLOUDY    30  24  78 CALM      30.22R

$$
MOZ072>076-082>087-097>100-106>115-071500-
...SOUTH CENTRAL AND SOUTHEAST MISSOURI...

CITY           SKY/WX    TMP DP  RH WIND       PRES   REMARKS
CAPE GIRARDEAU CLOUDY    34  24  67 CALM      30.24R
FARMINGTON     CLEAR     26  21  81 CALM      30.21S
POPLAR BLUFF   MOCLDY    34  24  67 N7        30.23S WCI  28
WEST PLAINS    PTCLDY    27  18  69 NE5       30.21R WCI  22

$$



USA.gov is the U.S. government's official web portal to all federal, state and local government web resources and services.